ONEWEB-0371, 49297

Orbit data source: Space-Track

ONEWEB-0371, 49297 is a payload satellite owned by One Web (NAA) (UK) in LEO that was launched on Thu, 14 Oct 2021 UTC via a SOYUZ-2-1B launch vehicle from the Vostochny Cosmodrome (VOSTO). Payload-class satellites include a variety of spacecraft equipped with specific instruments for various scientific and technological missions. These include communications satellites like Starlink; space stations such as the ISS; scientific satellites like the Hubble; Earth observation satellites from companies like Planet Labs, Umbra, and HawkEye 360; GPS; miniature CubeSats for education and research; and military/defense satellites.

Loading next visibility...
Identifier
49297, 2021-090U
Orbit
LEO
Country
Flag of UKUK
Related business
Manufacturer
One Web
Mission
Operational Commercial Communications
Bus & Motor
ARROW, Unknown motor
Mass
148 kg wet, ~140 kg dry
Launch date (UTC)
2021-10-14 (5 years ago)
Launch vehicle
SOYUZ-2-1B
Launch site
Vostochny Cosmodrome (VOSTO)
Object type
Payload
Rocket body
Debris
Shape & HBR
Trap Box + 2 Pan, 6.7 m
Radar Cross Section
3.464 m², Large (>1 m²)

Expand to show TLE details & history
Last TLE update: 2 days ago

TLE from 2 days ago
0 ONEWEB-0371
1 49297U 21090U   26171.44997500  .00001085  00000-0  26770-2 0  9996
2 49297  87.9180 304.3165 0001888 102.7173 257.4171 13.19734089226882
Epoch: 2026-06-20T10:47Z
TLE epoch observation values (Epoch: 2026-06-20T10:47:57.840Z)
Latitude
0.00002°
Longitude
-126.33893°
Altitude
1,188.949 km
Speed
7.259 km/s
True Right ascension
20h 17m 15s
True Declination
0° 00' 00"
Sunlit
Object was in full shadow at epoch
Visualization orbit readout
Latitude
Unknown
Longitude
Unknown
Altitude
Unknown
Speed
Unknown
Apparent Right ascension
Unknown
Apparent Declination
Unknown
Sunlit
N/A
Visualization observer readout
Local Sidereal Time
23:21:52
Azimuth
Unknown
Elevation
Unknown
Doppler factor
Unknown
Orbital elements
Apogee altitude
1,184.269 km
Perigee altitude
1,181.414 km
Semi-major axis
7,560.979 km
Eccentricity
0.00019
Inclination
87.918°
RAAN
304.3165°
Arg. of periapsis
102.7173°
True anomaly
257.39599°
Mean anomaly
257.4171°
Eccentric anomaly
257.40654°
Mean motion
3.30123 °/min
Orbital period
109.05 mins
BSTAR
0.002677
Loading maneuver chart data...
Computing Atmospheric mass density...
Loading historical data...
Loading historical data...
Loading historical data...
Loading historical data...
Loading historical data...
Loading historical data...
Loading historical data...

Documentation

Showing up to 5 results
|